Location: B?lite?ti
(46.2833°N, 22.7333°E)
Time: 16:33:24
(UTC+00:00)

COSMO-SKYMED 1 - Pass Details

Date: 24 January 2021
Orbit: 621 x 623 km, 97.9° (Epoch: 28 February)

Event Time Altitude Azimuth Distance (km) Brightness Sun altitude
Rises 15:54:29 0° 23° (NNE) 2,915 5.6 -5.9°
Reaches altitude 10° 15:56:55 10° 34° (NE) 2,003 4.7 -6.3°
Maximum altitude 16:00:45 30° 96° (E) 1,135 3.4 -6.9°
Drops below altitude 10° 16:04:33 10° 157° (SSE) 1,987 5.1 -7.6°
Sets 16:06:57 0° 168° (SSE) 2,888 6.1 -8.0°
